Location: Cahas Mountain Overlook
(37.0833°N, 80.1000°W)
Time: 07:12:45
(UTC-04:00)

Tiros 1 - Pass Details

Date: 13 February 2026
Orbit: 618 x 650 km, 48.4° (Epoch: 14 March)

Event Time Altitude Azimuth Distance (km) Brightness Sun altitude
Rises 09:44:53 0° 222° (SW) 2,897 10.5 25.8°
Reaches altitude 10° 09:47:14 10° 217° (SW) 1,988 9.8 26.2°
Maximum altitude 09:51:42 56° 140° (SE) 741 8.8 26.8°
Drops below altitude 10° 09:56:09 10° 63° (ENE) 1,982 10.0 27.4°
Sets 09:58:29 0° 59° (ENE) 2,887 10.6 27.7°
